Location: Unspecified
(0.0000°N, 0.0000°E)
Time: 16:20:08
(UTC+00:00)

TIANHUI 5D - Pass Details

Date: 17 August 2024
Orbit: 603 x 606 km, 97.8° (Epoch: 20 September)

Event Time Altitude Azimuth Distance (km) Brightness Sun altitude
Rises 18:49:21 0° 201° (SSW) 2,860 ? -11.1°
Reaches altitude 10° 18:52:26 10° 225° (SW) 1,954 ? -11.8°
Maximum altitude 18:54:42 14° 258° (WSW) 1,688 ? -12.4°
Drops below altitude 10° 18:56:58 10° 291° (WNW) 1,949 ? -12.9°
Sets 19:00:03 0° 316° (NW) 2,849 ? -13.7°
